Preview of NWS' New Version of Forecast
This preview is not operational and should not be used for support decisions.

Regional Weather Roundup (RWR)

Issued by National Weather Service (NWS)

                            
000
ASUS44 KMEG 220710
RWRTN 
TENNESSEE HOURLY STATE WEATHER ROUNDUP
NATIONAL WEATHER SERVICE MEMPHIS TN
200 AM CDT WED MAY 22 2019

TNZ002-004-019-021-049-052-054-088>092-220800-
WEST TENNESSEE
  
CITY           SKY/WX    TMP DP  RH WIND       PRES   REMARKS
MEMPHIS INTL   CLOUDY    74  65  73 VRB7      29.83F                  
NWS MEMPHIS      N/A     79 N/A N/A MISG        N/A                   
JACKSON        FAIR      77  67  71 S13G21    29.85S                  
DYERSBURG      MOCLDY    68  62  81 NW6       29.88R                  
SOMERVILLE     MOCLDY    79  66  65 S10G18    29.82F                  
COVINGTON      CLOUDY    70  63  78 CALM      29.84F                  
UNION CITY     CLOUDY    68  63  83 N7        29.83S                  
BOLIVAR        CLOUDY    77  68  73 S10G18    29.84F                  
PARIS          CLOUDY    77  66  69 S15       29.84S                  
LEXINGTON      CLEAR     77  66  69 S8G17     29.86F                  
SELMER         CLEAR     77  66  69 S10G18    29.87F                  
SAVANNAH       PTCLDY    77  68  73 S10       29.88F                  
$$

TNZ008-025-027-028-033-062-065-066-220800-
NORTH MIDDLE TENNESSEE
  
CITY           SKY/WX    TMP DP  RH WIND       PRES   REMARKS
NASHVILLE      FAIR      74  63  68 S6        29.93R                  
DICKSON        SUNNY     73  63  68 S13       29.90S                  
PORTLAND       MOCLDY    72  64  78 S6        29.92R                  
CLARKSVILLE    FAIR      74  62  66 S5        29.88R                  
LEBANON        SUNNY     73  63  68 S7        29.92R                  
SMYRNA         FAIR      72  65  78 SE3       29.95R                  
MURFREESBORO   SUNNY     75  63  64 CALM      29.93R                  
COOKEVILLE     PTCLDY    63  61  94 S5        29.97R                  
LIVINGSTON     SUNNY     75  59  57 S7        29.97R                  
CROSSVILLE     FAIR      64  57  78 CALM      30.02R                  
ROCKWOOD       PTSUNNY   68  59  73 VRB3      30.01R                  
$$

TNZ061-075-076-078-094-096-097-220800-
SOUTH MIDDLE TENNESSEE
  
CITY           SKY/WX    TMP DP  RH WIND       PRES   REMARKS
LAWRENCEBURG   PTSUNNY   70  63  78 CALM      29.95R                  
LEWISBURG      SUNNY     70  63  78 CALM      29.94R                  
FAYETTEVILLE   CLEAR     72  63  73 S7        29.97R                  
TULLAHOMA      CLEAR     70  63  78 CALM      29.97R                  
WINCHESTER     CLEAR     72  63  73 S3        29.97R                  
MCMINNVILLE    CLEAR     72  63  73 CALM      29.97R                  
COLUMBIA       CLOUDY    73  66  78 S6        29.92R                  
SHELBYVILLE    CLEAR     72  63  73 SW3       29.96R                  
$$

TNZ017-018-042-046-047-220800-
NORTHEAST TENNESSEE
  
CITY           SKY/WX    TMP DP  RH WIND       PRES   REMARKS
TRI CITIES     FAIR      60  55  83 CALM      30.08R                  
ELIZABETHTON   FAIR      64  55  72 CALM      30.09R                  
GREENEVILLE    MOSUNNY   70  55  60 CALM      30.05F                  
$$

TNZ012-013-036-069-073-074-220800-
CENTRAL EAST TENNESSEE
  
CITY           SKY/WX    TMP DP  RH WIND       PRES   REMARKS
KNOXVILLE      FAIR      69  59  70 E3        29.97F                  
OAK RIDGE      FAIR      65  59  81 CALM      30.01R                  
DOWNTOWN KNOXV CLEAR     63  63 100 CALM      29.99S                  
GATLINBURG     CLEAR     68  59  73 CALM      29.99F                  
MORRISTOWN     CLEAR     66  55  68 CALM      30.00F                  
JACKSBORO      PTCLDY    59  57  94 CALM      30.05R                  
$$

TNZ083-085-099-220800-
SOUTHEAST TENNESSEE
  
CITY           SKY/WX    TMP DP  RH WIND       PRES   REMARKS
CHATTANOOGA    FAIR      71  67  87 CALM      29.97S                  
DAYTON         CLOUDY    68  66  94 CALM      29.97R                  
$$

SKY/WX REPORTED AS FAIR MEANS FEW OR NO CLOUDS BELOW
12 THOUSAND FEET.